This is the latest recevied weather packets stored in our database for station/object KC3AWA. If no packets are shown the sender has not sent any weather packets the latest 10 day(s).
| Time | Temp. | Humidity | Pressure | Rain* | Wind** | Luminosity | Snow |
|---|---|---|---|---|---|---|---|
| 1778066350 | 7.78° C | 98% | 1007.5 hPa | 0 mm | - | 27 W/m² | - |
| 1778066048 | 7.78° C | 98% | 1007.7 hPa | 1.78 mm | - | 6 W/m² | - |
| 1778065745 | 7.78° C | 98% | 1008 hPa | 3.05 mm | - | 14 W/m² | - |
| 1778065442 | 7.78° C | 98% | 1007.9 hPa | 1.27 mm | - | 11 W/m² | - |
| 1778065139 | 7.78° C | 98% | 1008 hPa | 1.78 mm | - | 5 W/m² | - |
| 1778064835 | 7.78° C | 98% | 1008 hPa | 3.56 mm | - | 4 W/m² | - |
| 1778064533 | 7.78° C | 98% | 1007.8 hPa | 4.83 mm | - | 4 W/m² | - |
| 1778064230 | 7.78° C | 98% | 1007.7 hPa | 4.32 mm | - | 4 W/m² | - |
| 1778063928 | 7.78° C | 98% | 1007.8 hPa | 3.05 mm | - | 2 W/m² | - |
| 1778063625 | 7.78° C | 98% | 1007.7 hPa | 4.83 mm | - | 2 W/m² | - |
| 1778063322 | 7.78° C | 98% | 1007.6 hPa | 7.11 mm | - | 1 W/m² | - |
| 1778063020 | 7.78° C | 98% | 1007.7 hPa | 6.1 mm | - | 1 W/m² | - |
| 1778062717 | 8.33° C | 98% | 1007.6 hPa | 3.05 mm | - | 1 W/m² | - |
| 1778062413 | 8.33° C | 98% | 1007.5 hPa | 3.05 mm | - | 0 W/m² | - |
| 1778062111 | 8.33° C | 98% | 1007.4 hPa | 1.27 mm | - | 0 W/m² | - |
| 1778061810 | 8.33° C | 98% | 1007.3 hPa | 1.78 mm | - | 0 W/m² | - |
| 1778061508 | 8.33° C | 98% | 1007.2 hPa | 1.78 mm | - | 0 W/m² | - |
| 1778061204 | 8.33° C | 98% | 1007 hPa | 1.78 mm | - | 0 W/m² | - |
| 1778060901 | 8.33° C | 98% | 1007.2 hPa | 3.05 mm | - | 0 W/m² | - |
| 1778060600 | 8.33° C | 98% | 1007 hPa | 1.27 mm | - | 0 W/m² | - |
| 1778060298 | 8.89° C | 98% | 1007.4 hPa | 0 mm | - | 0 W/m² | - |
| 1778059994 | 8.89° C | 98% | 1007.6 hPa | 3.05 mm | - | 0 W/m² | - |
| 1778059692 | 8.89° C | 98% | 1007.2 hPa | 4.83 mm | - | 0 W/m² | - |
| 1778059390 | 8.89° C | 98% | 1007.1 hPa | 4.83 mm | - | 0 W/m² | - |
| 1778059087 | 9.44° C | 98% | 1007.2 hPa | 6.1 mm | - | 0 W/m² | - |
* Rain latest hour (hover to see other rain measurements)
** Current wind speed in m/s (hover to see current wind gust speed)